Location: Pedimozza
(42.0500°N, 9.3500°E)
Time: 00:02:44
(UTC+00:00)

BREEZE-M DEB (TANK) - Pass Details

Date: 19 August 2019
Orbit: 303 x 15408 km, 49.3° (Epoch: 19 September)

Event Time Altitude Azimuth Distance (km) Brightness Sun altitude
Rises 18:53:38 0° 290° (WNW) 2,972 9.2 -7.0°
Reaches altitude 10° 18:56:51 10° 311° (NW) 1,443 6.4 -7.6°
Maximum altitude 18:58:48 18° 0° (N) 880 4.2 -7.9°
Drops below altitude 10° 19:00:26 10° 50° (NE) 1,182 4.3 -8.2°
Enters shadow 19:01:34 - 66° (ENE) 1,656 4.9 -8.4°
